When you browse on this site, cookies collect data to enhance your experience and personalize the content and advertising you see.
Visit our Privacy Policy to learn more. By continuing to use the site, you agree to this use of cookies and data.
  • In Deutschland
  • Länderverzeichnis
  • Für 7 Tage
  • Wassertemperatur
  • Satellitenkarten
  • Wetterkarte
  • Widgets
  • user-avatar
    Anmelden

    Stündliche Wetter Kury

    Heute, 22 Mai, Mittwoch

    Zeit Temperatur Niederschläge Wind Luftdruck Luftfeuchtigkeit
    00:00 +11°C° 0 mm 4 m/S 743 mmHg 91%
    01:00 +11°C° 0 mm 4 m/S 743 mmHg 93%
    02:00 +11°C° 0 mm 4 m/S 743 mmHg 93%
    03:00 +11°C° 0 mm 4 m/S 743 mmHg 94%
    04:00 +11°C° 0 mm 4 m/S 743 mmHg 94%
    05:00 +12°C° 0 mm 5 m/S 744 mmHg 90%
    06:00 +13°C° 0 mm 5 m/S 744 mmHg 86%
    07:00 +15°C° 0 mm 5 m/S 744 mmHg 80%
    08:00 +16°C° 0.1 mm 5 m/S 744 mmHg 79%
    09:00 +16°C° 0.1 mm 5 m/S 744 mmHg 77%
    10:00 +17°C° 0.1 mm 5 m/S 744 mmHg 75%
    11:00 +17°C° 0.4 mm 5 m/S 744 mmHg 74%
    12:00 +19°C° 0.4 mm 5 m/S 744 mmHg 73%
    13:00 +20°C° 0.4 mm 5 m/S 744 mmHg 72%
    14:00 +20°C° 0.6 mm 4 m/S 744 mmHg 73%
    15:00 +20°C° 0.6 mm 4 m/S 744 mmHg 74%
    16:00 +20°C° 0.6 mm 4 m/S 744 mmHg 75%
    17:00 +19°C° 0.3 mm 4 m/S 744 mmHg 79%
    18:00 +18°C° 0.3 mm 3 m/S 744 mmHg 84%
    19:00 +17°C° 0.3 mm 3 m/S 744 mmHg 89%
    20:00 +16°C° 0.2 mm 2 m/S 745 mmHg 90%
    21:00 +15°C° 0.2 mm 2 m/S 745 mmHg 92%
    22:00 +15°C° 0.2 mm 2 m/S 745 mmHg 94%
    23:00 +14°C° 0.1 mm 2 m/S 746 mmHg 94%

    Morgen, 23 Mai, Donnerstag

    Zeit Temperatur Niederschläge Wind Luftdruck Luftfeuchtigkeit
    00:00 +14°C° 0.1 mm 2 m/S 746 mmHg 95%
    01:00 +14°C° 0.1 mm 1 m/S 746 mmHg 95%
    02:00 +13°C° 0 mm 1 m/S 746 mmHg 95%
    03:00 +13°C° 0 mm 1 m/S 746 mmHg 95%
    04:00 +13°C° 0 mm 1 m/S 747 mmHg 96%
    05:00 +14°C° 0 mm 1 m/S 747 mmHg 92%
    06:00 +16°C° 0 mm 1 m/S 747 mmHg 88%
    07:00 +17°C° 0 mm 2 m/S 748 mmHg 84%
    08:00 +19°C° 0 mm 2 m/S 748 mmHg 78%
    09:00 +20°C° 0 mm 2 m/S 748 mmHg 72%
    10:00 +21°C° 0 mm 2 m/S 748 mmHg 67%
    11:00 +23°C° 0.6 mm 2 m/S 748 mmHg 67%
    12:00 +22°C° 0.6 mm 3 m/S 748 mmHg 68%
    13:00 +22°C° 0.6 mm 3 m/S 748 mmHg 68%
    14:00 +22°C° 1 mm 4 m/S 748 mmHg 72%
    15:00 +21°C° 1 mm 5 m/S 748 mmHg 76%
    16:00 +21°C° 1 mm 5 m/S 748 mmHg 80%
    17:00 +19°C° 0.3 mm 5 m/S 748 mmHg 83%
    18:00 +17°C° 0.3 mm 5 m/S 748 mmHg 85%
    19:00 +16°C° 0.3 mm 5 m/S 749 mmHg 88%
    20:00 +15°C° 0 mm 5 m/S 749 mmHg 89%
    21:00 +14°C° 0 mm 4 m/S 749 mmHg 91%
    22:00 +13°C° 0 mm 4 m/S 750 mmHg 92%
    23:00 +12°C° 0 mm 4 m/S 750 mmHg 89%

    übermorgen, 24 Mai, Freitag

    Zeit Temperatur Niederschläge Wind Luftdruck Luftfeuchtigkeit
    00:00 +12°C° 0 mm 4 m/S 750 mmHg 87%
    01:00 +12°C° 0 mm 4 m/S 750 mmHg 84%
    02:00 +11°C° 0 mm 4 m/S 750 mmHg 83%
    03:00 +11°C° 0 mm 3 m/S 750 mmHg 81%
    04:00 +11°C° 0 mm 3 m/S 750 mmHg 80%
    05:00 +11°C° 0 mm 3 m/S 750 mmHg 79%
    06:00 +12°C° 0 mm 3 m/S 750 mmHg 79%
    07:00 +13°C° 0 mm 3 m/S 750 mmHg 78%
    08:00 +14°C° 0 mm 4 m/S 750 mmHg 74%
    09:00 +17°C° 0 mm 4 m/S 750 mmHg 69%
    10:00 +19°C° 0 mm 4 m/S 750 mmHg 65%
    11:00 +20°C° 0 mm 4 m/S 750 mmHg 63%
    12:00 +20°C° 0 mm 5 m/S 750 mmHg 60%
    13:00 +21°C° 0 mm 5 m/S 749 mmHg 58%
    14:00 +21°C° 0 mm 5 m/S 749 mmHg 58%
    15:00 +21°C° 0 mm 4 m/S 749 mmHg 58%
    16:00 +21°C° 0 mm 4 m/S 749 mmHg 58%
    17:00 +20°C° 0 mm 4 m/S 749 mmHg 64%
    18:00 +19°C° 0 mm 3 m/S 749 mmHg 69%
    19:00 +17°C° 0 mm 3 m/S 749 mmHg 75%
    20:00 +16°C° 0 mm 2 m/S 749 mmHg 78%
    21:00 +15°C° 0 mm 2 m/S 749 mmHg 81%
    22:00 +13°C° 0 mm 2 m/S 749 mmHg 84%
    23:00 +13°C° 0 mm 1 m/S 749 mmHg 85%

    25 Mai, Samstag

    Zeit Temperatur Niederschläge Wind Luftdruck Luftfeuchtigkeit
    00:00 +12°C° 0 mm 1 m/S 749 mmHg 85%
    01:00 +11°C° 0 mm 0 m/S 749 mmHg 85%
    02:00 +12°C° 0 mm 1 m/S 749 mmHg 84%
    03:00 +12°C° 0 mm 1 m/S 749 mmHg 83%
    04:00 +12°C° 0 mm 1 m/S 749 mmHg 82%
    05:00 +14°C° 0 mm 2 m/S 749 mmHg 80%
    06:00 +16°C° 0 mm 3 m/S 749 mmHg 77%
    07:00 +17°C° 0 mm 3 m/S 748 mmHg 74%
    08:00 +18°C° 0.1 mm 4 m/S 748 mmHg 68%
    09:00 +20°C° 0.1 mm 4 m/S 748 mmHg 62%
    10:00 +21°C° 0.1 mm 5 m/S 748 mmHg 56%
    11:00 +21°C° 0.3 mm 5 m/S 748 mmHg 58%
    12:00 +21°C° 0.3 mm 5 m/S 748 mmHg 60%
    13:00 +21°C° 0.3 mm 6 m/S 748 mmHg 62%
    14:00 +21°C° 0.1 mm 5 m/S 747 mmHg 60%
    15:00 +21°C° 0.1 mm 5 m/S 747 mmHg 59%
    16:00 +21°C° 0.1 mm 5 m/S 747 mmHg 58%
    17:00 +20°C° 0 mm 4 m/S 747 mmHg 63%
    18:00 +18°C° 0 mm 4 m/S 747 mmHg 68%
    19:00 +17°C° 0 mm 3 m/S 747 mmHg 73%
    20:00 +16°C° 0 mm 3 m/S 748 mmHg 74%
    21:00 +14°C° 0 mm 3 m/S 748 mmHg 75%
    22:00 +14°C° 0 mm 3 m/S 748 mmHg 77%
    23:00 +13°C° 0 mm 3 m/S 748 mmHg 80%

    26 Mai, Sonntag

    Zeit Temperatur Niederschläge Wind Luftdruck Luftfeuchtigkeit
    00:00 +12°C° 0 mm 3 m/S 748 mmHg 84%
    01:00 +11°C° 0 mm 4 m/S 748 mmHg 88%
    02:00 +10°C° 0 mm 3 m/S 748 mmHg 89%
    03:00 +9°C° 0 mm 3 m/S 748 mmHg 90%
    04:00 +9°C° 0 mm 3 m/S 748 mmHg 92%
    05:00 +10°C° 0 mm 4 m/S 748 mmHg 86%
    06:00 +11°C° 0 mm 4 m/S 748 mmHg 81%
    07:00 +13°C° 0 mm 5 m/S 748 mmHg 76%
    08:00 +13°C° 0 mm 5 m/S 748 mmHg 73%
    09:00 +13°C° 0 mm 6 m/S 748 mmHg 70%
    10:00 +14°C° 0 mm 6 m/S 747 mmHg 68%
    11:00 +14°C° 0 mm 6 m/S 747 mmHg 67%
    12:00 +14°C° 0 mm 6 m/S 747 mmHg 66%
    13:00 +14°C° 0 mm 6 m/S 747 mmHg 65%
    14:00 +14°C° 0.1 mm 7 m/S 747 mmHg 65%
    15:00 +14°C° 0.1 mm 7 m/S 747 mmHg 65%
    16:00 +14°C° 0.1 mm 7 m/S 747 mmHg 65%
    17:00 +13°C° 0.1 mm 6 m/S 747 mmHg 68%
    18:00 +11°C° 0.1 mm 6 m/S 747 mmHg 71%
    19:00 +10°C° 0.1 mm 5 m/S 747 mmHg 74%
    20:00 +9°C° 0 mm 5 m/S 747 mmHg 74%
    21:00 +8°C° 0 mm 5 m/S 747 mmHg 74%
    22:00 +7°C° 0 mm 5 m/S 748 mmHg 75%
    23:00 +7°C° 0 mm 5 m/S 748 mmHg 75%

    27 Mai, Montag

    Zeit Temperatur Niederschläge Wind Luftdruck Luftfeuchtigkeit
    00:00 +6°C° 0 mm 5 m/S 748 mmHg 76%
    01:00 +6°C° 0 mm 5 m/S 748 mmHg 77%
    02:00 +6°C° 0 mm 5 m/S 748 mmHg 77%
    03:00 +6°C° 0 mm 5 m/S 749 mmHg 78%
    04:00 +6°C° 0 mm 5 m/S 749 mmHg 78%
    05:00 +7°C° 0 mm 5 m/S 749 mmHg 75%
    06:00 +8°C° 0 mm 5 m/S 749 mmHg 72%
    07:00 +10°C° 0 mm 6 m/S 749 mmHg 68%
    08:00 +12°C° 0 mm 5 m/S 749 mmHg 65%
    09:00 +13°C° 0 mm 5 m/S 749 mmHg 62%
    10:00 +14°C° 0 mm 5 m/S 749 mmHg 59%
    11:00 +15°C° 0 mm 4 m/S 749 mmHg 56%
    12:00 +17°C° 0 mm 4 m/S 749 mmHg 53%
    13:00 +18°C° 0 mm 4 m/S 749 mmHg 49%
    14:00 +19°C° 0 mm 3 m/S 749 mmHg 49%
    15:00 +19°C° 0 mm 3 m/S 748 mmHg 48%
    16:00 +19°C° 0 mm 3 m/S 748 mmHg 47%
    17:00 +18°C° 0 mm 2 m/S 747 mmHg 53%
    18:00 +17°C° 0 mm 2 m/S 747 mmHg 58%
    19:00 +16°C° 0 mm 2 m/S 747 mmHg 64%
    20:00 +15°C° 0 mm 2 m/S 747 mmHg 65%
    21:00 +13°C° 0 mm 3 m/S 746 mmHg 66%
    22:00 +13°C° 0 mm 3 m/S 746 mmHg 68%
    23:00 +13°C° 0 mm 3 m/S 746 mmHg 71%
    Mehr zeigen